Location: *
(34.6780°N, 135.8310°E)
Time: 21:18:09
(UTC+00:00)

SJ-12 - Pass Details

Date: 18 October 2019
Orbit: 570 x 585 km, 97.6° (Epoch: 21 November)

Event Time Altitude Azimuth Distance (km) Brightness Sun altitude
Rises 19:58:59 0° 15° (NNE) 2,789 7.6 -14.3°
Reaches altitude 10° 20:01:09 10° 18° (NNE) 1,889 6.7 -13.8°
Maximum altitude 20:05:14 67° 101° (E) 627 4.3 -13.0°
Drops below altitude 10° 20:09:18 10° 184° (S) 1,885 6.5 -12.2°
Sets 20:11:27 0° 187° (S) 2,782 7.4 -11.7°
